Regional Weather Roundup
Issued by NWS

Home | Current Version | Previous Version | Graphics & Text | Print | Product List | Glossary On
Versions: 1 2 3 4 5 6 7 8 9 10 11 12 13 14 15 16 17 18 19 20 21 22 23 24 25 26 27 28 29 30 31 32 33 34 35 36 37 38 39 40 41 42 43 44 45 46 47 48 49 50
000
ASUS45 KCYS 041210
RWRWY

WYOMING REGIONAL WEATHER ROUNDUP
NATIONAL WEATHER SERVICE CHEYENNE WY
600 AM MDT FRI SEP 04 2015

NOTE:  "FAIR" INDICATES FEW OR NO CLOUDS BELOW 12,000 FEET
WITH NO SIGNIFICANT WEATHER AND/OR OBSTRUCTIONS TO VISIBILITY.

WYZ001-041300-
YELLOWSTONE NATIONAL PARK

CITY           SKY/WX    TMP DP  RH WIND       PRES   REMARKS
LK YELLOWSTONE   N/A     40  38  93 CALM      30.03S
6HR MIN TEMP:  40; 6HR MAX TEMP:  47; 6HR PCP:  0.01;

W YELLOWSTONE  NOT AVBL

$$
WYZ002>013-054>058-071-098>099-041300-
NORTHERN WYOMING

CITY           SKY/WX    TMP DP  RH WIND       PRES   REMARKS
JACKSON        FAIR      45  45 100 CALM      29.95S
CODY           FAIR      48  45  87 N6        29.94R
GREYBULL       FAIR      55  46  71 W14       29.88R
6HR MIN TEMP:  55; 6HR MAX TEMP:  70; 6HR PCP: TRACE;

WORLAND        FAIR      53  43  68 CALM      29.89R
6HR MIN TEMP:  53; 6HR MAX TEMP:  64;

SHERIDAN       FAIR      56  43  61 W7        29.91R
6HR MIN TEMP:  52; 6HR MAX TEMP:  63;

BUFFALO        FAIR      55  45  68 N10       29.94R
6HR MIN TEMP:  55; 6HR MAX TEMP:  68;

GILLETTE       FAIR      54  41  61 CALM      29.88R
6HR MIN TEMP:  54; 6HR MAX TEMP:  72;

HULETT         FAIR      64  45  48 CALM      29.88R
NEWCASTLE      FAIR      61  41  48 N3        29.87R

$$
WYZ014>020-022>026-101>103-041300-
CENTRAL WYOMING

CITY           SKY/WX    TMP DP  RH WIND       PRES   REMARKS
BIG PINEY      FAIR      39  32  76 NW5       30.04R
6HR MIN TEMP:  39; 6HR MAX TEMP:  56;

PINEDALE       FAIR      37  34  87 CALM      30.05R
DUBOIS         FAIR      43  34  70 NW10      30.02S
LANDER         FAIR      57  33  40 VRB6      29.91S
6HR MIN TEMP:  57; 6HR MAX TEMP:  72;

RIVERTON       FAIR      54  41  61 NW8       29.92R
6HR MIN TEMP:  54; 6HR MAX TEMP:  70; 6HR PCP: TRACE;

CASPER         FAIR      57  42  57 NW5       29.94S
6HR MIN TEMP:  57; 6HR MAX TEMP:  69;

DOUGLAS        FAIR      54  46  74 S3        29.93R
6HR MIN TEMP:  52; 6HR MAX TEMP:  61;


$$
WYZ021-027>030-104>119-041300-
SOUTHERN WYOMING

CITY           SKY/WX    TMP DP  RH WIND       PRES   REMARKS
EVANSTON       FAIR      56  30  37 S6        30.02R
6HR MIN TEMP:  56; 6HR MAX TEMP:  60;

KEMMERER       FAIR      46  32  57 CALM      30.04R
FORT BRIDGER   SUNNY     59  30  33 SW12      30.06R
ROCK SPRINGS   FAIR      58  35  42 E5        30.03R
6HR MIN TEMP:  55; 6HR MAX TEMP:  61;

DIXON          FAIR      51  42  72 CALM      30.10R
RAWLINS        FAIR      53  41  63 CALM      30.06S
6HR MIN TEMP:  48; 6HR MAX TEMP:  56;

SARATOGA       FAIR      52  43  71 SE15G22   30.11R
LARAMIE        FAIR      45  50 100 SW6       30.10S
6HR MIN TEMP:  43; 6HR MAX TEMP:  50;

CHEYENNE       FAIR      55  43  63 W10       30.02R
6HR MIN TEMP:  50; 6HR MAX TEMP:  57;

TORRINGTON     FAIR      52  48  86 CALM      29.88S
6HR MIN TEMP:  51; 6HR MAX TEMP:  65;

PINE BLUFFS    FAIR      45  41  87 S6        29.98R

$$



USA.gov is the U.S. government's official web portal to all federal, state and local government web resources and services.